Regional Weather Roundup
Issued by NWS

Home | Current Version | Previous Version | Text Only | Print | Product List | Glossary Off
Versions: 1 2 3 4 5 6 7 8 9 10 11 12 13 14 15 16 17 18 19 20 21 22 23 24 25 26 27 28 29 30 31 32 33 34 35 36 37 38 39 40 41 42 43 44 45 46 47 48 49 50

000
ASUS43 KOAX 040510
RWRNE

WEATHER ROUNDUP FOR NEBRASKA
NATIONAL WEATHER SERVICE OMAHA NE
1100 PM CST TUE MAR 03 2015

NOTES: SATELLITE DATA IS BEING USED TO AUGMENT CLOUD COVER ABOVE
       12000 FEET.
       "FAIR" INDICATES FEW OR NO CLOUDS BELOW 12,000 FEET WITH NO
       SIGNIFICANT WEATHER AND/OR OBSTRUCTIONS TO VISIBILITY.

  * THESE STATIONS DO NOT REPORT WEATHER SUCH AS RAIN...SNOW OR FOG.

NEZ001>004-019>022-054>056-040600-
NEBRASKA PANHANDLE

CITY           SKY/WX    TMP DP  RH WIND       PRES   REMARKS
SCOTTSBLUFF    CLOUDY    16   8  71 NW7       30.05R WCI   6
ALLIANCE       CLOUDY    14   8  77 NW10      30.03R WCI   1
CHADRON        PTCLDY     5  -1  76 W3        30.09R
KIMBALL        LGT SNOW  13   9  84 N7        29.96R WCI   3
SIDNEY         LGT SNOW  14  11  87 N9        30.02  FOG     WCI   2
$$

NEZ057>060-069>072-079>082-040600-
SOUTHWEST NEBRASKA

CITY           SKY/WX    TMP DP  RH WIND       PRES   REMARKS
NORTH PLATTE   FLURRIES  16  12  84 N6        30.11R WCI   7
IMPERIAL         N/A     18  12  77 E6        30.06R WCI  10
LEXINGTON      LGT SNOW  19  15  88 N8        30.13R WCI   8
MCCOOK         LGT SNOW  20  16  84 N14       30.11R VSB 3/4 WCI   7
OGALLALA       LGT SNOW  17  15  89 CALM      30.07R
$$

NEZ005>010-023>029-035>040-094-040600-
NORTH CENTRAL NEBRASKA

CITY           SKY/WX    TMP DP  RH WIND       PRES   REMARKS
VALENTINE      CLOUDY    14   2  58 NW9       30.09R WCI   2
AINSWORTH      CLOUDY    16   3  57 NW13      30.08R WCI   2
BROKEN BOW     LGT SNOW  17  11  77 N9        30.11S WCI   6
O`NEILL        CLOUDY    18   5  56 NW10      30.09R WCI   7
ORD            LGT SNOW  18   7  62 NW10      30.13R WCI   6
THEDFORD       CLOUDY    16  12  85 W5        30.09R WCI   9
$$

NEZ041-046>049-061>064-073>077-083>087-040600-
SOUTH CENTRAL NEBRASKA

CITY           SKY/WX    TMP DP  RH WIND       PRES   REMARKS
GRAND ISLAND   MIX PCPN  19   5  54 N20       30.15R WCI   3
AURORA         CLOUDY    20   5  51 N14       30.13R WCI   7
HASTINGS       CLOUDY    20   4  50 N17       30.13R WCI   5
HEBRON         CLOUDY    22   7  51 N13       30.12R WCI  10
HOLDREGE       LGT SNOW  19  11  73 N14       30.13R WCI   5
KEARNEY *      CLOUDY    18  10  73 N14       30.14R WCI   4
YORK           CLOUDY    19   7  58 N14       30.13R WCI   6
$$

NEZ011>018-030>034-042>045-040600-
NORTHEAST NEBRASKA

CITY           SKY/WX    TMP DP  RH WIND       PRES   REMARKS
NORFOLK        CLOUDY    18   5  57 W5        30.12R WCI  11
ALBION         CLOUDY    19   3  51 W5        30.14R WCI  12
BLAIR          PTCLDY    18   7  60 N13       30.12R WCI   5
COLUMBUS *     MOCLDY    19   0  42 NW9       30.17R WCI   9
FREMONT        MOCLDY    19   8  62 NW8       30.15R WCI   8
TEKAMAH        PTCLDY    18   7  62 N9        30.15R WCI   7
WAYNE          CLOUDY    15   5  65 NW3       30.13R
$$

NEZ050>053-065>068-078-088>093-040600-
SOUTHEAST NEBRASKA

CITY           SKY/WX    TMP DP  RH WIND       PRES   REMARKS
LINCOLN        PTCLDY    19   7  59 N15       30.15R WCI   5
OMAHA EPPLEY   PTCLDY    18   7  62 N17       30.13R WCI   3
BEATRICE       PTCLDY    20   8  61 N15       30.12R WCI   6
FALLS CITY     PTCLDY    22   7  52 N14       30.09R WCI   9
NEBRASKA CITY  CLEAR     19   5  54 N15G23    30.10R WCI   5
PLATTSMOUTH    PTCLDY    19   5  56 N17G23    30.11R WCI   3
$$

NEZ044-045-051>053-067-040600-
OMAHA AREA

CITY           SKY/WX    TMP DP  RH WIND       PRES   REMARKS
OMAHA EPPLEY   PTCLDY    18   7  62 N17       30.13R WCI   3
BLAIR          PTCLDY    18   7  60 N13       30.12R WCI   5
FREMONT        MOCLDY    19   8  62 NW8       30.15R WCI   8
MILLARD        MOCLDY    19   7  59 NW9       30.14R WCI   9
OFFUTT AFB     PTCLDY    19   6  57 N15G21    30.12R WCI   4
PLATTSMOUTH    PTCLDY    19   5  56 N17G23    30.11R WCI   3
WAHOO          MOCLDY    18   6  58 N8        30.15R WCI   8
$$


USA.gov is the U.S. government's official web portal to all federal, state and local government web resources and services.